Погода в Кургане

Погода в Кургане : погода сейчас, прогноз погоды и архив. Всё, что Вы хотите узнать о погоде в Кургане!

Хотите узнать прогноз погоды в Кургане? Тогда Вам сюда: Погода в Кургане

Поиск расширенной информации на нашем сайте:

Другие новости

Новости СМИ2

Главная страница сайта

Новости сайта

03.07.2017

Напоминаем, что на нашем специализированном сайте Метеоцентр.Азия вы можете получить высокодетализированные автоматические прогнозы погоды по пунктам России, СНГ и мира в авиационном формате (включающие направление и скорость ветра, видимость, явления погоды, количество и форму облачности, нижнюю и верхнюю границу облачности).


Погода в Кургане - сегодня

Время (UTC), дата Ветер
(°,м/с) 
Видим.   Явления Облачность Т
(°С)
Тd
(°С)
f(%) Тe
(°С)
Pmin
(гПа)
dP
(гПа)
Po
(мм)
O2
(г/м3)
Тmin Tmax R s Состояние
почвы
03 16.06.18 170 (Ю) 20000 м    10/0 средняя, верхняя 
[Ac trans|Ci fib]
+12.9 +4.7 57 +14  1009.6  -0.6  751  288  +4.7        сухая 
06 16.06.18 240 (ЮЗ) 20000 м    10/10 1000 м кучево-дожд. 
[Cb cap]
+15.8 +3.7 44 +16  1008.4  -1  750  285           
09 16.06.18 210 (ЮЗ) 20000 м    10/10 1000 м кучево-дожд. 
[Cb cap]
+16.9 +1.1 34 +17  1007.3  -1.1  749  284           
18 16.06.18 290 (З) 10 км    10/5 1000 м средняя, верхняя 
[Sc|Ac trans|Ci fib]
+10.6 +3.1 60 +12  1008.2  749  290           
21 16.06.18 тихо ()   10 км    3/0 средняя 
[Ac trans]
+5.9 +2.9 81 +6  1007.4  -1  749  295           
00 17.06.18 260 (З) 20000 м    10/8 1000 м верхняя 
[Sc|Ci fib]
+7.9 +4.2 77 +9  1007  -0.4  749  292           
03 17.06.18 260 (З) 10 км  слаб. ливневой дождь  10/8 1000 м кучево-дожд., средняя 
[Cb cap|Ac und]
+7.8 +5.8 87 +9  1006.4  -0.6  748  292  +5.1      влажная 
06 17.06.18 260 (З) 10 км  слаб. ливневой дождь  10/8 300 м кучево-дожд., средняя 
[Cb cap|Ac und]
+9.7 +6.7 82 +11  1005.8  -0.5  748  290           
18 17.06.18 250 (З) 10 км    6/3 1500 м средняя, верхняя 
[Sc diur, vesp|Ac trans|Ci fib]
+11 +7 76 +12  1005.1  -0.7  747  288           
21 17.06.18 160 (Ю) 10 км    8/0 верхняя 
[Ci fib]
+8.2 +6.9 92 +9  1003.9  -1.4  746  291           
00 18.06.18 170 (Ю) 20000 м    10/3 1500 м средняя, верхняя 
[Sc|Ac trans|Ci sp]
+8.1 +5.8 85 +9  1002.5  -1.3  745  291           
03 18.06.18 190 (Ю) 10 км  слаб. ливневой дождь  10/6 600 м кучево-дожд., средняя 
[Cb cap|Ac und]
+10.3 +8.1 86 +10  1000.2  -2.2  744  287  +7.9      влажная 
06 18.06.18 220 (ЮЗ) 20000 м  слаб. ливневой дождь  10/8 300 м кучево-дожд., средняя 
[Cb cap|Ac und]
+12.1 +10.7 91 +14  998.7  -1.4  743  284           
09 18.06.18 250 (З) 20000 м  {ливн. осадки}  8/6 600 м кучево-дожд., средняя 
[Cb cap|Ac trans]
+18 +12.7 71 +24  997.8  -0.7  742  278           
18 18.06.18 290 (З) 10 км    3/0 средняя 
[Ac trans]
+12.9 +8.3 74 +13  1001  0.1  744  285           
21 18.06.18 160 (Ю) 10 км    3/0 верхняя 
[Ci fib]
+8.7 +7.2 90 +10  1000.8  -0.3  744  289           
00 19.06.18 160 (Ю) 20000 м    ясно 
+8.5 +7.2 92 +10  1000.8  744  289           
03 19.06.18 280 (З) 20000 м    3/0 средняя 
[Ac trans]
+15.4 +10.3 72 +18  1000.7  0.1  744  282  +7.9        влажная 
06 19.06.18 310 (СЗ) 20000 м    10/5 1000 м кучево-дожд., средняя, верхняя 
[Cb cap|Ac trans|Ci fib]
+18.8 +9.9 56 +20  1000.2  -0.4  744  279           
12 19.06.18 350 (С) 2{10}  20000 м    8/8 1000 м кучево-дожд. 
[Cb cap]
+19.9 +6.3 41 +21  1001.1  0.2  744  279           
18 19.06.18 270 (З) 10 км    8/0 средняя, верхняя 
[Ac trans|Ci fib]
+16.5 +8.2 58 +17  1002  0.3  745  282           
21 19.06.18 130 (ЮВ) 10 км    10/0 средняя, верхняя 
[Ac trans|Ci fib]
+12.8 +8.7 76 +14  1002.4  0.3  745  285           
00 20.06.18 180 (Ю) 20000 м    10/3 1000 м кучево-дожд., средняя, верхняя 
[Cb cap|Ac trans|Ci fib]
+12.2 +10.6 90 +15  1002.7  0.2  745  286           
03 20.06.18 200 (Ю) 20000 м    10/0 средняя, верхняя 
[Ac trans|Ci fib]
+17.1 +11.1 68 +21  1003  0.4  746  281  +11.5        влажная 
06 20.06.18 270 (З) 20000 м    6/4 1000 м верхняя 
[Cu med, cong|Ci fib]
+21.4 +10.8 51 +24  1002.6  -0.2  746  277           
Время (UTC), дата Ветер
(°,м/с) 
Видим.   Явления Облачность Т
(°С)
Тd
(°С)
f(%) Тe
(°С)
Pmin
(гПа)
dP
(гПа)
Po
(мм)
O2
(г/м3)
Тmin Tmax R s Состояние
почвы

Для получения пояснительной информации подведите курсор к названию столбца.

ПОГОДА в Кургане - архив

Всё, что Вы хотите узнать о погоде в Кургане - удобно и подробно!

Выберите нужную дату (начиная с 1 января 2015* года) и нажмите кнопку "Найти".
Будут отображены архивные сводки погоды по пункту Курган, начиная с указанной даты.


Отображать данные в формате CSV (для использования в таблицах Excel)


Внимание! Наш архив погоды предназначен исключительно для личного некоммерческого использования в познавательных целях. Если Вам необходимы официальные справки о состоянии погоды (для производственных, юридических, коммерческих и т.п. целей), обращайтесь в органы Росгидромета.

*Примечание: данная дата относится к архиву по метеостанциям СССР (Россия, СНГ, Балтия).
Архив по метеостанциям Зарубежной Европы и Азии (кроме Китая) хранится 10 дней, по другим регионам земного шара (Китай, Африка, Америка, Австралия, Океания) - 1 день.

Курган - район местоположения метеостанции


Название, широта, долгота, высота метеостанции:
Курган 55.5°ш. 65.4°д. 74 м над ур. моря [Российская Федерация]

Дополнительная информация

В oтличие oт бoльшинства пoгoдных сайтoв мы публикуем пoдрoбную метеoинфoрмацию в детальнoм прoфессиoнальнoм фoрмате.

Характеристики температуры и влажнoсти вoздуха измеряются на высoте 2 м в тени вдали oт зданий и деревьев.
Скoрoсть ветра измеряется на высoте 10 м (на урoвне рoста челoвека скoрoсть ветра ниже в 1.5-2 раза). Если метеoстанция нахoдится в гoрoде или в лесу, тo скoрoсть ветра занижена на 2-4 м/с пo сравнению с oткрытым местoм. Скoрoсть ветра над акватoриями крупных рек и oзёр, а также на вершинах хoлмoв на 2-5 м/с выше, чем в oбычных услoвиях.
Атмoсфернoе давление в разных тoчках местнoсти мoжет значительнo oтличаться oт давления на метеoстанции, в зависимoсти oт услoвий рельефа (при пoдъёме на 10 м давление пoнижается примернo на 1 мм рт.ст.).